Date String (YYYY-MM-DD hh:mm:ss) UTC,Instrument flags,absolute air pressure of the measurement (hPa),sample flow rate (lpm),inlet stack bypass flow (lpm),air temperature of the measurement (°C),ambient temperature measured by the external sensor (°C),aerosol sample conditioner tube jacket temperature (°C),OPC LED temperature (°C),internal box temperature (°C),relative humidity of the measurement (%),span deviation,mass concentration of particles derived from Lorenz-Mie calculation of OPC scattering (μg/m³),mass concentration of particles derived from Lorenz-Mie calculation of OPC scattering (μg/m³),mass concentration of particles derived from Lorenz-Mie calculation of OPC scattering (μg/m³)
DateTimeUTC,F1_M11,P_M11,Q1_M11,Q2_M11,T1_M11,T2_M11,T3_M11,T4_M11,T5_M11,U1_M11,ZSPAN_M11,X2_M11,X0_M11,X1_M11
2023-12-03 03:00:00,SystemResetWarning,0820.0,5.00,000.00,018.8,017.9,000.0,027.2,020.0,10.2,0000.0,0000.86,0002.70,0000.55
2023-12-03 03:01:00,SystemResetWarning,0819.6,5.00,000.00,018.8,017.9,000.0,027.2,020.0,10.2,0000.0,0000.87,0002.76,0000.55
2023-12-03 03:02:00,SystemResetWarning,0819.7,5.00,000.00,018.8,017.9,000.0,027.2,020.0,10.2,0000.0,0000.86,0002.75,0000.55
2023-12-03 03:03:00,SystemResetWarning,0819.9,4.99,000.00,018.8,017.9,000.0,027.2,020.0,10.2,0000.0,0000.89,0002.83,0000.53
2023-12-03 03:04:00,SystemResetWarning,0819.5,5.00,000.00,018.8,017.9,000.0,027.2,020.0,10.0,0000.0,0000.86,0002.72,0000.53
2023-12-03 03:05:00,SystemResetWarning,0819.4,5.00,000.00,018.8,017.9,000.0,027.2,020.0,10.0,0000.0,0000.82,0002.61,0000.52
2023-12-03 03:06:00,SystemResetWarning,0819.5,5.00,000.00,018.8,017.9,000.0,027.2,020.0,10.1,0000.0,0000.78,0002.54,0000.50
2023-12-03 03:07:00,SystemResetWarning,0819.7,5.00,000.00,018.8,017.9,000.0,027.2,020.0,10.2,0000.0,0000.76,0002.17,0000.47
2023-12-03 03:08:00,SystemResetWarning,0819.8,5.00,000.00,018.8,017.9,000.0,027.2,020.0,10.3,0000.0,0000.77,0001.56,0000.46
2023-12-03 03:09:00,SystemResetWarning,0819.4,5.00,000.00,018.8,017.9,000.0,027.2,020.0,10.2,0000.0,0000.74,0001.50,0000.45
2023-12-03 03:10:00,SystemResetWarning,0819.4,4.99,000.00,018.8,017.8,000.0,027.2,020.0,10.3,0000.0,0000.72,0001.38,0000.44
2023-12-03 03:11:00,SystemResetWarning,0819.4,5.00,000.00,018.8,017.8,000.0,027.2,020.0,10.2,0000.0,0000.74,0001.43,0000.45
2023-12-03 03:12:00,SystemResetWarning,0819.4,5.00,000.00,018.8,017.8,000.0,027.2,020.0,10.2,0000.0,0000.73,0001.44,0000.44
2023-12-03 03:13:00,SystemResetWarning,0819.2,5.00,000.00,018.7,017.8,000.0,027.2,020.0,10.4,0000.0,0000.71,0001.34,0000.43
2023-12-03 03:14:00,SystemResetWarning,0818.9,5.01,000.00,018.7,017.8,000.0,027.2,020.0,10.3,0000.0,0000.71,0001.33,0000.42
2023-12-03 03:15:00,SystemResetWarning,0819.1,5.00,000.00,018.7,017.8,000.0,027.2,020.0,10.2,0000.0,0000.67,0001.26,0000.41
2023-12-03 03:16:00,SystemResetWarning,0819.1,5.00,000.00,018.7,017.8,000.0,027.2,020.0,10.3,0000.0,0000.69,0001.33,0000.41
2023-12-03 03:17:00,SystemResetWarning,0819.1,4.99,000.00,018.7,017.7,000.0,027.2,020.0,10.5,0000.0,0000.73,0001.42,0000.42
2023-12-03 03:18:00,SystemResetWarning,0819.0,5.01,000.00,018.7,017.7,000.0,027.2,020.0,10.2,0000.0,0000.75,0001.91,0000.42
2023-12-03 03:19:00,SystemResetWarning,0819.1,5.01,000.00,018.7,017.7,000.0,027.2,020.0,10.1,0000.0,0000.80,0002.23,0000.42
2023-12-03 03:20:00,SystemResetWarning,0819.2,5.00,000.00,018.7,017.7,000.0,027.2,020.0,10.2,0000.0,0000.82,0002.27,0000.42
2023-12-03 03:21:00,SystemResetWarning,0819.0,5.00,000.00,018.7,017.7,000.0,027.2,020.0,10.4,0000.0,0000.83,0002.42,0000.42
2023-12-03 03:22:00,SystemResetWarning,0818.8,4.99,000.00,018.7,017.7,000.0,027.2,020.0,10.4,0000.0,0000.79,0002.89,0000.41
2023-12-03 03:23:00,SystemResetWarning,0819.0,4.99,000.00,018.7,017.7,000.0,027.2,020.0,10.3,0000.0,0000.78,0002.80,0000.42
2023-12-03 03:24:00,SystemResetWarning,0819.1,5.01,000.00,018.7,017.6,000.0,027.3,020.0,10.2,0000.0,0000.79,0002.81,0000.43
2023-12-03 03:25:00,SystemResetWarning,0819.3,5.01,000.00,018.7,017.6,000.0,027.3,020.0,10.4,0000.0,0000.78,0002.79,0000.43
2023-12-03 03:26:00,SystemResetWarning,0819.1,5.01,000.00,018.7,017.6,000.0,027.3,020.0,10.5,0000.0,0000.79,0002.80,0000.42
2023-12-03 03:27:00,SystemResetWarning,0819.1,5.00,000.00,018.7,017.5,000.0,027.2,020.0,10.4,0000.0,0000.78,0004.60,0000.42
2023-12-03 03:28:00,SystemResetWarning,0818.9,4.99,000.00,018.7,017.5,000.0,027.2,020.0,10.4,0000.0,0000.76,0004.59,0000.43
2023-12-03 03:29:00,SystemResetWarning,0819.1,4.99,000.00,018.7,017.5,000.0,027.2,020.0,10.4,0000.0,0000.75,0004.41,0000.44
2023-12-03 03:30:00,SystemResetWarning,0818.9,4.99,000.00,018.7,017.5,000.0,027.2,020.0,10.2,0000.0,0000.72,0004.44,0000.44
2023-12-03 03:31:00,SystemResetWarning,0819.0,5.00,000.00,018.7,017.5,000.0,027.2,020.0,10.5,0000.0,0000.74,0004.58,0000.45
2023-12-03 03:32:00,SystemResetWarning,0819.0,5.01,000.00,018.7,017.5,000.0,027.2,020.0,10.4,0000.0,0000.76,0004.61,0000.45
2023-12-03 03:33:00,SystemResetWarning,0818.9,5.01,000.00,018.7,017.5,000.0,027.2,020.0,10.2,0000.0,0000.87,0004.88,0000.46
2023-12-03 03:34:00,SystemResetWarning,0818.8,5.00,000.00,018.7,017.5,000.0,027.2,020.0,10.2,0000.0,0000.91,0005.47,0000.47
2023-12-03 03:35:00,SystemResetWarning,0818.9,5.00,000.00,018.7,017.5,000.0,027.2,020.0,10.2,0000.0,0000.92,0005.77,0000.47
2023-12-03 03:36:00,SystemResetWarning,0819.1,4.99,000.00,018.7,017.5,000.0,027.2,020.0,10.3,0000.0,0000.90,0005.75,0000.47
2023-12-03 03:37:00,SystemResetWarning,0818.8,5.00,000.00,018.7,017.5,000.0,027.2,020.0,10.4,0000.0,0000.92,0005.82,0000.48
2023-12-03 03:38:00,SystemResetWarning,0818.9,5.00,000.00,018.7,017.5,000.0,027.2,020.0,10.5,0000.0,0000.96,0004.70,0000.48
2023-12-03 03:39:00,SystemResetWarning,0818.7,5.00,000.00,018.7,017.5,000.0,027.2,020.0,10.2,0000.0,0000.99,0004.31,0000.48
2023-12-03 03:40:00,SystemResetWarning,0818.5,5.00,000.00,018.7,017.5,000.0,027.2,020.0,10.2,0000.0,0001.00,0004.09,0000.48
2023-12-03 03:41:00,SystemResetWarning,0818.7,5.00,000.00,018.7,017.5,000.0,027.2,020.0,10.2,0000.0,0000.99,0003.71,0000.47
2023-12-03 03:42:00,SystemResetWarning,0819.0,5.00,000.00,018.7,017.5,000.0,027.2,020.0,10.1,0000.0,0000.96,0003.95,0000.47
2023-12-03 03:43:00,SystemResetWarning,0819.1,5.00,000.00,018.7,017.5,000.0,027.2,020.0,10.0,0000.0,0000.90,0004.02,0000.47
2023-12-03 03:44:00,SystemResetWarning,0819.0,5.00,000.00,018.7,017.5,000.0,027.2,020.0,10.0,0000.0,0000.82,0003.36,0000.46
2023-12-03 03:45:00,SystemResetWarning,0819.0,5.00,000.00,018.7,017.5,000.0,027.2,020.0,10.0,0000.0,0000.80,0002.66,0000.46
2023-12-03 03:46:00,SystemResetWarning,0819.2,5.00,000.00,018.7,017.5,000.0,027.2,020.0,10.1,0000.0,0000.82,0002.54,0000.46
2023-12-03 03:47:00,SystemResetWarning,0818.9,5.00,000.00,018.7,017.5,000.0,027.2,020.0,10.2,0000.0,0000.87,0002.65,0000.46
2023-12-03 03:48:00,SystemResetWarning,0818.9,5.00,000.00,018.7,017.4,000.0,027.2,020.0,10.3,0000.0,0000.89,0002.69,0000.46
2023-12-03 03:49:00,SystemResetWarning,0819.2,5.00,000.00,018.7,017.4,000.0,027.2,020.0,10.4,0000.0,0000.89,0002.59,0000.45
2023-12-03 03:50:00,SystemResetWarning,0819.1,5.00,000.00,018.7,017.4,000.0,027.2,020.0,10.3,0000.0,0000.86,0003.42,0000.46
2023-12-03 03:51:00,SystemResetWarning,0819.1,5.00,000.00,018.7,017.4,000.0,027.2,020.0,10.2,0000.0,0000.87,0003.94,0000.46
2023-12-03 03:52:00,SystemResetWarning,0819.0,4.99,000.00,018.7,017.4,000.0,027.2,020.0,10.3,0000.0,0000.89,0004.03,0000.46
2023-12-03 03:53:00,SystemResetWarning,0819.3,4.99,000.00,018.7,017.4,000.0,027.2,020.0,10.2,0000.0,0000.91,0003.85,0000.46
2023-12-03 03:54:00,SystemResetWarning,0819.1,5.00,000.00,018.7,017.4,000.0,027.2,020.0,10.3,0000.0,0000.92,0003.85,0000.47
2023-12-03 03:55:00,SystemResetWarning,0819.1,5.00,000.00,018.7,017.4,000.0,027.2,020.0,10.4,0000.0,0000.92,0003.81,0000.49
2023-12-03 03:56:00,SystemResetWarning,0819.3,5.00,000.00,018.7,017.4,000.0,027.2,020.0,10.3,0000.0,0000.92,0004.01,0000.51
2023-12-03 03:57:00,SystemResetWarning,0819.1,5.01,000.00,018.7,017.4,000.0,027.2,020.0,10.3,0000.0,0000.93,0003.96,0000.54
2023-12-03 03:58:00,SystemResetWarning,0819.1,4.99,000.00,018.7,017.4,000.0,027.2,020.0,10.4,0000.0,0000.92,0003.79,0000.56
2023-12-03 03:59:00,SystemResetWarning,0818.3,4.99,000.00,018.7,017.4,000.0,027.2,020.0,10.4,0000.0,0000.93,0003.79,0000.59
